Location: Peach Mountain Observatory
(42.3967°N, 83.9367°W)
Time: 06:11:28
(UTC-05:00)

Vanguard 1 Rocket - Pass Details

Date: 25 January 2020
Orbit: 650 x 4226 km, 34.3° (Epoch: 19 February)

Event Time Altitude Azimuth Distance (km) Brightness Sun altitude
Rises 19:06:44 0° 270° (W) 7,614 13.8 -16.0°
Reaches altitude 10° 19:21:44 10° 236° (SW) 7,323 13.0 -18.7°
Maximum altitude 19:23:51 10° 231° (SW) 7,354 12.9 -19.1°
Drops below altitude 10° 19:25:59 10° 226° (SW) 7,402 12.8 -19.5°
Sets 19:42:46 0° 192° (SSW) 8,188 12.5 -22.5°
